contact:dominique.lefevre@mio.osupytheas.fr, maurice.libes@osupytheas.fr, didier.mallarino@osupytheas.fr
Project:EMSO http://www.emso-fr.org/EMSO-France
Depth: 2436.0 m
Title:EMSO Ligure Ouest : Data MII capteur MICROCAT
DateTime_Computer,Latitude,Longitude,Temperature,Conductivity,Pressure,DateTime_Instrument
DateTime_Computer,Latitude,Longitude,degC,S m-1,dbar,DateTime_Instrument
2020-01-03T00:02:32Z,42.805,6.029,13.2982,4.60044,2470.053,2020-1-03T02:03:03Z
2020-01-03T00:05:35Z,42.805,6.029,13.2974,4.60054,2470.053,2020-1-03T02:06:06Z
2020-01-03T00:08:38Z,42.805,6.029,13.2971,4.60023,2470.053,2020-1-03T02:09:10Z
2020-01-03T00:11:41Z,42.805,6.029,13.2975,4.60023,2470.04,2020-1-03T02:12:13Z
2020-01-03T00:14:45Z,42.805,6.029,13.2982,4.60025,2470.063,2020-1-03T02:15:16Z
2020-01-03T00:17:48Z,42.805,6.029,13.2996,4.60046,2470.04,2020-1-03T02:18:19Z
2020-01-03T00:20:51Z,42.805,6.029,13.2977,4.60020,2470.017,2020-1-03T02:21:23Z
2020-01-03T00:23:55Z,42.805,6.029,13.2991,4.60053,2470.007,2020-1-03T02:24:26Z
2020-01-03T00:26:58Z,42.805,6.029,13.2979,4.60026,2470.03,2020-1-03T02:27:29Z
2020-01-03T00:30:01Z,42.805,6.029,13.2995,4.60024,2470.017,2020-1-03T02:30:32Z
2020-01-03T00:33:04Z,42.805,6.029,13.2970,4.60019,2470.063,2020-1-03T02:33:36Z
2020-01-03T00:36:07Z,42.805,6.029,13.2983,4.60029,2470.03,2020-1-03T02:36:39Z
2020-01-03T00:39:11Z,42.805,6.029,13.2989,4.60044,2470.04,2020-1-03T02:39:42Z
2020-01-03T00:42:14Z,42.805,6.029,13.2976,4.60025,2470.063,2020-1-03T02:42:45Z
2020-01-03T00:45:17Z,42.805,6.029,13.2971,4.60010,2470.04,2020-1-03T02:45:49Z
2020-01-03T00:48:20Z,42.805,6.029,13.3000,4.60042,2470.04,2020-1-03T02:48:52Z
2020-01-03T00:51:23Z,42.805,6.029,13.2988,4.60045,2469.993,2020-1-03T02:51:55Z
2020-01-03T00:54:27Z,42.805,6.029,13.2986,4.60049,2470.017,2020-1-03T02:54:58Z
2020-01-03T00:57:30Z,42.805,6.029,13.2986,4.60027,2470.04,2020-1-03T02:58:01Z
2020-01-03T01:00:33Z,42.805,6.029,13.2979,4.60034,2470.03,2020-1-03T03:01:05Z
2020-01-03T01:03:37Z,42.805,6.029,13.2989,4.60033,2470.017,2020-1-03T03:04:08Z
2020-01-03T01:06:40Z,42.805,6.029,13.2979,4.60046,2470.03,2020-1-03T03:07:11Z
2020-01-03T01:09:43Z,42.805,6.029,13.2982,4.60031,2470.04,2020-1-03T03:10:15Z
2020-01-03T01:12:46Z,42.805,6.029,13.2982,4.60033,2470.04,2020-1-03T03:13:18Z
2020-01-03T01:15:49Z,42.805,6.029,13.3007,4.60026,2470.053,2020-1-03T03:16:21Z
2020-01-03T01:18:53Z,42.805,6.029,13.2998,4.60027,2469.993,2020-1-03T03:19:24Z
2020-01-03T01:21:56Z,42.805,6.029,13.2986,4.60019,2470.017,2020-1-03T03:22:27Z
2020-01-03T01:24:59Z,42.805,6.029,13.2982,4.60044,2470.007,2020-1-03T03:25:31Z
2020-01-03T01:28:02Z,42.805,6.029,13.2974,4.60063,2470.04,2020-1-03T03:28:34Z
2020-01-03T01:31:05Z,42.805,6.029,13.2982,4.60050,2470.017,2020-1-03T03:31:37Z
2020-01-03T01:34:09Z,42.805,6.029,13.2991,4.60048,2470.03,2020-1-03T03:34:40Z
2020-01-03T01:37:12Z,42.805,6.029,13.3000,4.60024,2470.017,2020-1-03T03:37:43Z
2020-01-03T01:40:15Z,42.805,6.029,13.2995,4.60033,2470.03,2020-1-03T03:40:47Z
2020-01-03T01:43:18Z,42.805,6.029,13.2983,4.60031,2470.03,2020-1-03T03:43:50Z
2020-01-03T01:46:21Z,42.805,6.029,13.2974,4.60038,2470.017,2020-1-03T03:46:53Z
2020-01-03T01:49:25Z,42.805,6.029,13.2976,4.60014,2470.017,2020-1-03T03:49:56Z
2020-01-03T01:52:28Z,42.805,6.029,13.2979,4.60016,2470.03,2020-1-03T03:52:59Z
2020-01-03T01:55:31Z,42.805,6.029,13.2976,4.60019,2469.993,2020-1-03T03:56:03Z
2020-01-03T01:58:34Z,42.805,6.029,13.2993,4.60021,2470.017,2020-1-03T03:59:06Z
2020-01-03T02:01:38Z,42.805,6.029,13.2985,4.60009,2470.03,2020-1-03T04:02:09Z
2020-01-03T02:04:41Z,42.805,6.029,13.2982,4.60002,2470.03,2020-1-03T04:05:12Z
2020-01-03T02:07:44Z,42.805,6.029,13.2976,4.59993,2470.03,2020-1-03T04:08:15Z
2020-01-03T02:10:47Z,42.805,6.029,13.2974,4.59999,2470.017,2020-1-03T04:11:19Z
2020-01-03T02:13:50Z,42.805,6.029,13.2986,4.60027,2470.017,2020-1-03T04:14:22Z
2020-01-03T02:16:54Z,42.805,6.029,13.2986,4.60050,2470.03,2020-1-03T04:17:25Z
2020-01-03T02:19:57Z,42.805,6.029,13.2989,4.60033,2470.03,2020-1-03T04:20:28Z
2020-01-03T02:23:00Z,42.805,6.029,13.2979,4.60053,2470.017,2020-1-03T04:23:32Z
2020-01-03T02:26:03Z,42.805,6.029,13.2980,4.60033,2470.03,2020-1-03T04:26:35Z
2020-01-03T02:29:06Z,42.805,6.029,13.2974,4.60045,2470.017,2020-1-03T04:29:38Z
2020-01-03T02:32:10Z,42.805,6.029,13.2989,4.60039,2470.03,2020-1-03T04:32:41Z
2020-01-03T02:35:13Z,42.805,6.029,13.2986,4.60062,2470.007,2020-1-03T04:35:44Z
2020-01-03T02:38:16Z,42.805,6.029,13.2977,4.60052,2470.007,2020-1-03T04:38:47Z
2020-01-03T02:41:19Z,42.805,6.029,13.2980,4.60003,2470.017,2020-1-03T04:41:51Z
2020-01-03T02:44:22Z,42.805,6.029,13.3010,4.60005,2469.993,2020-1-03T04:44:54Z
2020-01-03T02:47:26Z,42.805,6.029,13.2975,4.60028,2469.993,2020-1-03T04:47:57Z
2020-01-03T02:50:29Z,42.805,6.029,13.3022,4.60032,2469.993,2020-1-03T04:51:00Z
2020-01-03T02:53:32Z,42.805,6.029,13.2998,4.60028,2469.993,2020-1-03T04:54:03Z
2020-01-03T02:56:35Z,42.805,6.029,13.2996,4.60033,2469.97,2020-1-03T04:57:07Z
2020-01-03T02:59:38Z,42.805,6.029,13.2983,4.60031,2469.993,2020-1-03T05:00:10Z
2020-01-03T03:02:42Z,42.805,6.029,13.2982,4.60039,2470.007,2020-1-03T05:03:13Z
2020-01-03T03:05:45Z,42.805,6.029,13.2990,4.60049,2470.03,2020-1-03T05:06:17Z
2020-01-03T03:08:48Z,42.805,6.029,13.2971,4.60035,2470.03,2020-1-03T05:09:20Z
2020-01-03T03:11:51Z,42.805,6.029,13.2979,4.59994,2470.04,2020-1-03T05:12:23Z
2020-01-03T03:14:55Z,42.805,6.029,13.2969,4.60003,2470.017,2020-1-03T05:15:26Z
2020-01-03T03:17:58Z,42.805,6.029,13.2976,4.60029,2470.03,2020-1-03T05:18:29Z
2020-01-03T03:21:01Z,42.805,6.029,13.2979,4.59999,2469.993,2020-1-03T05:21:32Z
2020-01-03T03:24:04Z,42.805,6.029,13.2981,4.60023,2469.993,2020-1-03T05:24:36Z
2020-01-03T03:27:07Z,42.805,6.029,13.2976,4.60034,2469.97,2020-1-03T05:27:39Z
2020-01-03T03:30:11Z,42.805,6.029,13.2976,4.60024,2470.017,2020-1-03T05:30:42Z
2020-01-03T03:33:14Z,42.805,6.029,13.2982,4.60017,2470.007,2020-1-03T05:33:45Z
2020-01-03T03:36:17Z,42.805,6.029,13.2977,4.60025,2470.007,2020-1-03T05:36:49Z
2020-01-03T03:39:20Z,42.805,6.029,13.2995,4.60021,2469.993,2020-1-03T05:39:52Z
2020-01-03T03:42:23Z,42.805,6.029,13.2974,4.60009,2470.03,2020-1-03T05:42:55Z
2020-01-03T03:45:27Z,42.805,6.029,13.2986,4.60027,2469.993,2020-1-03T05:45:58Z
2020-01-03T03:48:30Z,42.805,6.029,13.2982,4.60014,2470.007,2020-1-03T05:49:01Z
2020-01-03T03:51:33Z,42.805,6.029,13.2986,4.60016,2469.984,2020-1-03T05:52:05Z
2020-01-03T03:54:36Z,42.805,6.029,13.2971,4.59999,2470.017,2020-1-03T05:55:08Z
2020-01-03T03:57:40Z,42.805,6.029,13.2971,4.60004,2469.97,2020-1-03T05:58:11Z
2020-01-03T04:00:43Z,42.805,6.029,13.2976,4.60013,2470.017,2020-1-03T06:01:15Z
2020-01-03T04:03:46Z,42.805,6.029,13.2988,4.60029,2469.993,2020-1-03T06:04:18Z
2020-01-03T04:06:49Z,42.805,6.029,13.2970,4.60022,2469.993,2020-1-03T06:07:21Z
2020-01-03T04:09:53Z,42.805,6.029,13.2977,4.60021,2470.007,2020-1-03T06:10:24Z
2020-01-03T04:12:56Z,42.805,6.029,13.2980,4.60034,2469.993,2020-1-03T06:13:28Z
2020-01-03T04:15:59Z,42.805,6.029,13.2978,4.60006,2469.984,2020-1-03T06:16:31Z
2020-01-03T04:19:03Z,42.805,6.029,13.2976,4.60027,2470.007,2020-1-03T06:19:34Z
2020-01-03T04:22:06Z,42.805,6.029,13.2985,4.60032,2469.97,2020-1-03T06:22:37Z
2020-01-03T04:25:09Z,42.805,6.029,13.2999,4.60046,2469.993,2020-1-03T06:25:40Z
2020-01-03T04:28:12Z,42.805,6.029,13.2982,4.60026,2469.993,2020-1-03T06:28:44Z
2020-01-03T04:31:15Z,42.805,6.029,13.2973,4.60024,2470.007,2020-1-03T06:31:47Z
2020-01-03T04:34:18Z,42.805,6.029,13.2977,4.60009,2469.984,2020-1-03T06:34:50Z
2020-01-03T04:37:22Z,42.805,6.029,13.2978,4.60009,2470.007,2020-1-03T06:37:53Z
2020-01-03T04:40:25Z,42.805,6.029,13.2991,4.60042,2470.017,2020-1-03T06:40:56Z
2020-01-03T04:43:28Z,42.805,6.029,13.2972,4.60019,2469.993,2020-1-03T06:44:00Z
2020-01-03T04:46:31Z,42.805,6.029,13.2975,4.60005,2470.04,2020-1-03T06:47:03Z
2020-01-03T04:49:34Z,42.805,6.029,13.2970,4.60031,2469.993,2020-1-03T06:50:06Z
2020-01-03T04:52:38Z,42.805,6.029,13.2980,4.60031,2469.984,2020-1-03T06:53:09Z
2020-01-03T04:55:41Z,42.805,6.029,13.2982,4.60017,2469.993,2020-1-03T06:56:12Z
2020-01-03T04:58:44Z,42.805,6.029,13.2978,4.60006,2469.993,2020-1-03T06:59:16Z
2020-01-03T05:01:47Z,42.805,6.029,13.2977,4.60015,2469.97,2020-1-03T07:02:19Z
2020-01-03T05:04:50Z,42.805,6.029,13.2990,4.60011,2470.007,2020-1-03T07:05:22Z
2020-01-03T05:07:54Z,42.805,6.029,13.2970,4.59993,2469.993,2020-1-03T07:08:25Z
2020-01-03T05:10:57Z,42.805,6.029,13.2976,4.59988,2470.03,2020-1-03T07:11:28Z
2020-01-03T05:14:00Z,42.805,6.029,13.2990,4.60022,2469.993,2020-1-03T07:14:32Z
2020-01-03T05:17:03Z,42.805,6.029,13.2971,4.60005,2469.984,2020-1-03T07:17:35Z
2020-01-03T05:20:06Z,42.805,6.029,13.2976,4.60014,2469.97,2020-1-03T07:20:38Z
2020-01-03T05:23:10Z,42.805,6.029,13.2986,4.60020,2469.993,2020-1-03T07:23:41Z
2020-01-03T05:26:13Z,42.805,6.029,13.2976,4.60013,2470.007,2020-1-03T07:26:44Z
2020-01-03T05:29:16Z,42.805,6.029,13.2970,4.60001,2469.993,2020-1-03T07:29:48Z
2020-01-03T05:32:19Z,42.805,6.029,13.2972,4.60003,2469.984,2020-1-03T07:32:51Z
2020-01-03T05:35:23Z,42.805,6.029,13.2977,4.59996,2469.993,2020-1-03T07:35:54Z
2020-01-03T05:38:26Z,42.805,6.029,13.2973,4.60004,2470.007,2020-1-03T07:38:57Z
2020-01-03T05:41:29Z,42.805,6.029,13.2974,4.60016,2470.017,2020-1-03T07:42:01Z
2020-01-03T05:44:32Z,42.805,6.029,13.2966,4.59991,2469.993,2020-1-03T07:45:04Z
2020-01-03T05:47:35Z,42.805,6.029,13.2976,4.60001,2469.993,2020-1-03T07:48:07Z
2020-01-03T05:50:39Z,42.805,6.029,13.2973,4.60002,2470.007,2020-1-03T07:51:10Z
2020-01-03T05:53:42Z,42.805,6.029,13.2982,4.60013,2470.007,2020-1-03T07:54:13Z
2020-01-03T05:56:45Z,42.805,6.029,13.2971,4.59999,2469.97,2020-1-03T07:57:17Z
2020-01-03T05:59:48Z,42.805,6.029,13.2975,4.60003,2470.007,2020-1-03T08:00:20Z
2020-01-03T06:02:52Z,42.805,6.029,13.2971,4.60014,2469.984,2020-1-03T08:03:23Z
2020-01-03T06:05:55Z,42.805,6.029,13.2971,4.60002,2470.007,2020-1-03T08:06:26Z
2020-01-03T06:08:58Z,42.805,6.029,13.2977,4.59989,2469.97,2020-1-03T08:09:29Z
2020-01-03T06:12:01Z,42.805,6.029,13.2982,4.60015,2470.03,2020-1-03T08:12:33Z
2020-01-03T06:15:04Z,42.805,6.029,13.2980,4.60026,2470.007,2020-1-03T08:15:36Z
2020-01-03T06:18:08Z,42.805,6.029,13.2978,4.60020,2470.007,2020-1-03T08:18:39Z
2020-01-03T06:21:11Z,42.805,6.029,13.2975,4.60023,2469.984,2020-1-03T08:21:42Z
2020-01-03T06:24:14Z,42.805,6.029,13.2980,4.60012,2470.007,2020-1-03T08:24:46Z
2020-01-03T06:27:18Z,42.805,6.029,13.2979,4.60001,2470.007,2020-1-03T08:27:49Z
2020-01-03T06:30:21Z,42.805,6.029,13.2977,4.60004,2470.03,2020-1-03T08:30:52Z
2020-01-03T06:33:24Z,42.805,6.029,13.2975,4.60018,2469.993,2020-1-03T08:33:56Z
2020-01-03T06:36:27Z,42.805,6.029,13.2982,4.59993,2470.007,2020-1-03T08:36:59Z
2020-01-03T06:39:30Z,42.805,6.029,13.2970,4.59988,2469.993,2020-1-03T08:40:02Z
2020-01-03T06:42:34Z,42.805,6.029,13.2972,4.59987,2469.993,2020-1-03T08:43:05Z
2020-01-03T06:45:37Z,42.805,6.029,13.2977,4.60014,2470.007,2020-1-03T08:46:08Z
2020-01-03T06:48:40Z,42.805,6.029,13.2990,4.60010,2470.007,2020-1-03T08:49:12Z
2020-01-03T06:51:43Z,42.805,6.029,13.2986,4.60026,2469.993,2020-1-03T08:52:15Z
2020-01-03T06:54:46Z,42.805,6.029,13.2971,4.60005,2470.007,2020-1-03T08:55:18Z
2020-01-03T06:57:50Z,42.805,6.029,13.2974,4.60011,2469.993,2020-1-03T08:58:21Z
2020-01-03T07:00:53Z,42.805,6.029,13.2977,4.60002,2469.993,2020-1-03T09:01:24Z
2020-01-03T07:03:56Z,42.805,6.029,13.2978,4.60008,2470.007,2020-1-03T09:04:28Z
2020-01-03T07:06:59Z,42.805,6.029,13.2976,4.60006,2469.993,2020-1-03T09:07:31Z
2020-01-03T07:10:03Z,42.805,6.029,13.2991,4.60016,2470.03,2020-1-03T09:10:34Z
2020-01-03T07:13:06Z,42.805,6.029,13.2979,4.60020,2469.993,2020-1-03T09:13:37Z
2020-01-03T07:16:09Z,42.805,6.029,13.2974,4.60006,2469.984,2020-1-03T09:16:41Z
2020-01-03T07:19:12Z,42.805,6.029,13.2979,4.60013,2469.984,2020-1-03T09:19:44Z
2020-01-03T07:22:15Z,42.805,6.029,13.2975,4.60011,2470.007,2020-1-03T09:22:47Z
2020-01-03T07:25:19Z,42.805,6.029,13.2977,4.60006,2469.993,2020-1-03T09:25:50Z
2020-01-03T07:28:22Z,42.805,6.029,13.2973,4.60021,2469.993,2020-1-03T09:28:54Z
2020-01-03T07:31:25Z,42.805,6.029,13.2976,4.60012,2470.007,2020-1-03T09:31:57Z
2020-01-03T07:34:29Z,42.805,6.029,13.2970,4.60016,2469.993,2020-1-03T09:35:00Z
2020-01-03T07:37:32Z,42.805,6.029,13.2968,4.59997,2469.993,2020-1-03T09:38:03Z
2020-01-03T07:40:35Z,42.805,6.029,13.2974,4.60014,2469.993,2020-1-03T09:41:06Z
2020-01-03T07:43:38Z,42.805,6.029,13.2981,4.60019,2470.017,2020-1-03T09:44:10Z
2020-01-03T07:46:41Z,42.805,6.029,13.2981,4.60019,2469.993,2020-1-03T09:47:13Z
2020-01-03T07:49:45Z,42.805,6.029,13.2973,4.60007,2470.017,2020-1-03T09:50:16Z
2020-01-03T07:52:48Z,42.805,6.029,13.2975,4.60032,2469.993,2020-1-03T09:53:19Z
2020-01-03T07:55:51Z,42.805,6.029,13.2967,4.60003,2470.03,2020-1-03T09:56:23Z
2020-01-03T07:58:54Z,42.805,6.029,13.2978,4.60003,2470.053,2020-1-03T09:59:26Z
2020-01-03T08:01:57Z,42.805,6.029,13.2992,4.59999,2470.017,2020-1-03T10:02:29Z
2020-01-03T08:05:01Z,42.805,6.029,13.2980,4.60003,2470.003,2020-1-03T10:05:32Z
2020-01-03T08:08:04Z,42.805,6.029,13.2971,4.60015,2469.993,2020-1-03T10:08:35Z
2020-01-03T08:11:07Z,42.805,6.029,13.2974,4.60004,2470.017,2020-1-03T10:11:38Z
2020-01-03T08:14:10Z,42.805,6.029,13.2982,4.59988,2470.03,2020-1-03T10:14:42Z
2020-01-03T08:17:13Z,42.805,6.029,13.2972,4.59998,2470.017,2020-1-03T10:17:45Z
2020-01-03T08:20:17Z,42.805,6.029,13.2978,4.60021,2470.03,2020-1-03T10:20:48Z
2020-01-03T08:23:20Z,42.805,6.029,13.2981,4.60012,2470.007,2020-1-03T10:23:51Z
2020-01-03T08:26:23Z,42.805,6.029,13.2981,4.60013,2470.04,2020-1-03T10:26:54Z
2020-01-03T08:29:26Z,42.805,6.029,13.2978,4.60003,2470.04,2020-1-03T10:29:58Z
2020-01-03T08:32:30Z,42.805,6.029,13.2974,4.59996,2470.007,2020-1-03T10:33:01Z
2020-01-03T08:35:33Z,42.805,6.029,13.2973,4.59988,2470.017,2020-1-03T10:36:04Z
2020-01-03T08:38:36Z,42.805,6.029,13.2978,4.60010,2470.04,2020-1-03T10:39:08Z
2020-01-03T08:41:39Z,42.805,6.029,13.2979,4.60003,2470.017,2020-1-03T10:42:11Z
2020-01-03T08:44:43Z,42.805,6.029,13.2971,4.60012,2470.04,2020-1-03T10:45:15Z
2020-01-03T08:47:46Z,42.805,6.029,13.2980,4.60007,2470.053,2020-1-03T10:48:18Z
2020-01-03T08:50:49Z,42.805,6.029,13.2979,4.60003,2470.017,2020-1-03T10:51:21Z
2020-01-03T08:53:53Z,42.805,6.029,13.2976,4.59993,2470.053,2020-1-03T10:54:24Z
2020-01-03T08:56:56Z,42.805,6.029,13.2982,4.60026,2470.053,2020-1-03T10:57:28Z
2020-01-03T08:59:59Z,42.805,6.029,13.2979,4.60021,2470.053,2020-1-03T11:00:31Z
2020-01-03T09:03:02Z,42.805,6.029,13.2976,4.59992,2470.04,2020-1-03T11:03:34Z
2020-01-03T09:06:06Z,42.805,6.029,13.2983,4.59999,2470.053,2020-1-03T11:06:37Z
2020-01-03T09:09:09Z,42.805,6.029,13.2987,4.60001,2470.053,2020-1-03T11:09:41Z
2020-01-03T09:12:12Z,42.805,6.029,13.2987,4.60009,2470.077,2020-1-03T11:12:44Z
2020-01-03T09:15:15Z,42.805,6.029,13.2974,4.60003,2470.04,2020-1-03T11:15:47Z
2020-01-03T09:18:19Z,42.805,6.029,13.2978,4.59996,2470.053,2020-1-03T11:18:50Z
2020-01-03T09:21:22Z,42.805,6.029,13.2971,4.60010,2470.053,2020-1-03T11:21:53Z
2020-01-03T09:24:25Z,42.805,6.029,13.2982,4.60021,2470.053,2020-1-03T11:24:57Z
2020-01-03T09:27:28Z,42.805,6.029,13.2983,4.60014,2470.077,2020-1-03T11:28:00Z
2020-01-03T09:30:32Z,42.805,6.029,13.2979,4.60002,2470.053,2020-1-03T11:31:03Z
2020-01-03T09:33:35Z,42.805,6.029,13.2988,4.60011,2470.077,2020-1-03T11:34:06Z
2020-01-03T09:36:38Z,42.805,6.029,13.2976,4.60021,2470.1,2020-1-03T11:37:10Z
2020-01-03T09:39:42Z,42.805,6.029,13.2976,4.60027,2470.077,2020-1-03T11:40:13Z
2020-01-03T09:42:45Z,42.805,6.029,13.2979,4.60011,2470.077,2020-1-03T11:43:16Z
2020-01-03T09:45:48Z,42.805,6.029,13.2983,4.59996,2470.04,2020-1-03T11:46:20Z
2020-01-03T09:48:51Z,42.805,6.029,13.2990,4.60025,2470.04,2020-1-03T11:49:23Z
2020-01-03T09:51:54Z,42.805,6.029,13.2985,4.60017,2470.124,2020-1-03T11:52:26Z
2020-01-03T09:54:58Z,42.805,6.029,13.2992,4.60010,2470.087,2020-1-03T11:55:29Z
2020-01-03T09:58:01Z,42.805,6.029,13.2980,4.60016,2470.077,2020-1-03T11:58:32Z
2020-01-03T10:01:04Z,42.805,6.029,13.2971,4.60025,2470.1,2020-1-03T12:01:36Z
2020-01-03T10:04:07Z,42.805,6.029,13.2973,4.60026,2470.124,2020-1-03T12:04:39Z
2020-01-03T10:07:11Z,42.805,6.029,13.2981,4.60019,2470.087,2020-1-03T12:07:42Z
2020-01-03T10:10:14Z,42.805,6.029,13.2996,4.59997,2470.04,2020-1-03T12:10:46Z
2020-01-03T10:13:17Z,42.805,6.029,13.2986,4.60036,2470.124,2020-1-03T12:13:49Z
2020-01-03T10:16:20Z,42.805,6.029,13.2974,4.59991,2470.1,2020-1-03T12:16:52Z
2020-01-03T10:19:24Z,42.805,6.029,13.3010,4.60028,2470.1,2020-1-03T12:19:55Z
2020-01-03T10:22:27Z,42.805,6.029,13.2985,4.60014,2470.1,2020-1-03T12:22:58Z
2020-01-03T10:25:30Z,42.805,6.029,13.2983,4.60051,2470.11,2020-1-03T12:26:02Z
2020-01-03T10:28:33Z,42.805,6.029,13.2982,4.60025,2470.1,2020-1-03T12:29:05Z
2020-01-03T10:31:37Z,42.805,6.029,13.2986,4.60025,2470.063,2020-1-03T12:32:08Z
2020-01-03T10:34:40Z,42.805,6.029,13.3000,4.60026,2470.124,2020-1-03T12:35:11Z
2020-01-03T10:37:43Z,42.805,6.029,13.2983,4.60029,2470.1,2020-1-03T12:38:15Z
2020-01-03T10:40:46Z,42.805,6.029,13.2982,4.60021,2470.1,2020-1-03T12:41:18Z
2020-01-03T10:43:50Z,42.805,6.029,13.2982,4.60021,2470.087,2020-1-03T12:44:21Z
2020-01-03T10:46:53Z,42.805,6.029,13.2986,4.60018,2470.11,2020-1-03T12:47:24Z
2020-01-03T10:49:56Z,42.805,6.029,13.2982,4.60020,2470.124,2020-1-03T12:50:28Z
2020-01-03T10:52:59Z,42.805,6.029,13.2975,4.60026,2470.124,2020-1-03T12:53:31Z
2020-01-03T10:56:02Z,42.805,6.029,13.2978,4.60012,2470.11,2020-1-03T12:56:34Z
2020-01-03T10:59:06Z,42.805,6.029,13.2980,4.60016,2470.077,2020-1-03T12:59:37Z
2020-01-03T11:02:09Z,42.805,6.029,13.2988,4.60021,2470.133,2020-1-03T13:02:40Z
2020-01-03T11:05:12Z,42.805,6.029,13.2986,4.60045,2470.133,2020-1-03T13:05:44Z
2020-01-03T11:08:15Z,42.805,6.029,13.2971,4.60038,2470.124,2020-1-03T13:08:47Z
2020-01-03T11:11:19Z,42.805,6.029,13.2983,4.60030,2470.087,2020-1-03T13:11:50Z
2020-01-03T11:14:22Z,42.805,6.029,13.2983,4.60009,2470.124,2020-1-03T13:14:53Z
2020-01-03T11:17:25Z,42.805,6.029,13.2986,4.60000,2470.087,2020-1-03T13:17:57Z
2020-01-03T11:20:29Z,42.805,6.029,13.2991,4.60014,2470.147,2020-1-03T13:21:00Z
2020-01-03T11:23:32Z,42.805,6.029,13.2984,4.60024,2470.133,2020-1-03T13:24:03Z
2020-01-03T11:26:35Z,42.805,6.029,13.2988,4.60014,2470.124,2020-1-03T13:27:06Z
2020-01-03T11:29:38Z,42.805,6.029,13.2973,4.60000,2470.133,2020-1-03T13:30:10Z
2020-01-03T11:32:41Z,42.805,6.029,13.2981,4.60034,2470.11,2020-1-03T13:33:13Z
2020-01-03T11:35:45Z,42.805,6.029,13.2975,4.60056,2470.156,2020-1-03T13:36:16Z
2020-01-03T11:38:48Z,42.805,6.029,13.2979,4.60014,2470.11,2020-1-03T13:39:19Z
2020-01-03T11:41:51Z,42.805,6.029,13.2979,4.60009,2470.11,2020-1-03T13:42:23Z
2020-01-03T11:44:54Z,42.805,6.029,13.2988,4.60011,2470.124,2020-1-03T13:45:26Z
2020-01-03T11:47:58Z,42.805,6.029,13.2985,4.60019,2470.147,2020-1-03T13:48:29Z
2020-01-03T11:51:01Z,42.805,6.029,13.2982,4.60019,2470.147,2020-1-03T13:51:32Z
2020-01-03T11:54:04Z,42.805,6.029,13.2989,4.60033,2470.11,2020-1-03T13:54:36Z
2020-01-03T11:57:07Z,42.805,6.029,13.2990,4.60041,2470.171,2020-1-03T13:57:39Z
2020-01-03T12:00:10Z,42.805,6.029,13.2983,4.60024,2470.11,2020-1-03T14:00:42Z
2020-01-03T12:03:14Z,42.805,6.029,13.2976,4.60027,2470.133,2020-1-03T14:03:45Z
2020-01-03T12:06:17Z,42.805,6.029,13.2985,4.60036,2470.11,2020-1-03T14:06:49Z
2020-01-03T12:09:20Z,42.805,6.029,13.2982,4.60026,2470.133,2020-1-03T14:09:52Z
2020-01-03T12:12:23Z,42.805,6.029,13.2982,4.60009,2470.11,2020-1-03T14:12:55Z
2020-01-03T12:15:26Z,42.805,6.029,13.2982,4.60028,2470.133,2020-1-03T14:15:58Z
2020-01-03T12:18:30Z,42.805,6.029,13.2972,4.60001,2470.147,2020-1-03T14:19:01Z
2020-01-03T12:21:33Z,42.805,6.029,13.2979,4.60004,2470.133,2020-1-03T14:22:04Z
2020-01-03T12:24:36Z,42.805,6.029,13.2979,4.60008,2470.133,2020-1-03T14:25:08Z
2020-01-03T12:27:39Z,42.805,6.029,13.2981,4.60014,2470.124,2020-1-03T14:28:11Z
2020-01-03T12:30:43Z,42.805,6.029,13.2972,4.60022,2470.11,2020-1-03T14:31:14Z
2020-01-03T12:33:46Z,42.805,6.029,13.2977,4.60013,2470.124,2020-1-03T14:34:17Z
2020-01-03T12:36:49Z,42.805,6.029,13.2978,4.60013,2470.11,2020-1-03T14:37:21Z
2020-01-03T12:39:52Z,42.805,6.029,13.2974,4.60003,2470.087,2020-1-03T14:40:24Z
2020-01-03T12:42:55Z,42.805,6.029,13.2979,4.60001,2470.133,2020-1-03T14:43:27Z
2020-01-03T12:45:59Z,42.805,6.029,13.2975,4.60009,2470.11,2020-1-03T14:46:30Z
2020-01-03T12:49:02Z,42.805,6.029,13.2986,4.60013,2470.147,2020-1-03T14:49:33Z
2020-01-03T12:52:05Z,42.805,6.029,13.2986,4.60027,2470.156,2020-1-03T14:52:37Z
2020-01-03T12:55:08Z,42.805,6.029,13.2988,4.60021,2470.124,2020-1-03T14:55:40Z
2020-01-03T12:58:12Z,42.805,6.029,13.2976,4.60015,2470.147,2020-1-03T14:58:43Z
2020-01-03T13:01:15Z,42.805,6.029,13.2971,4.60021,2470.124,2020-1-03T15:01:46Z
2020-01-03T13:04:18Z,42.805,6.029,13.2967,4.59997,2470.133,2020-1-03T15:04:49Z
2020-01-03T13:07:21Z,42.805,6.029,13.2973,4.60009,2470.124,2020-1-03T15:07:53Z
2020-01-03T13:10:24Z,42.805,6.029,13.2984,4.60016,2470.11,2020-1-03T15:10:56Z
2020-01-03T13:13:27Z,42.805,6.029,13.2972,4.60003,2470.133,2020-1-03T15:13:59Z
2020-01-03T13:16:31Z,42.805,6.029,13.2975,4.60009,2470.11,2020-1-03T15:17:02Z
2020-01-03T13:19:34Z,42.805,6.029,13.2982,4.60024,2470.133,2020-1-03T15:20:05Z
2020-01-03T13:22:37Z,42.805,6.029,13.2968,4.59991,2470.124,2020-1-03T15:23:09Z
2020-01-03T13:25:40Z,42.805,6.029,13.2974,4.60020,2470.11,2020-1-03T15:26:12Z
2020-01-03T13:28:44Z,42.805,6.029,13.2976,4.60019,2470.11,2020-1-03T15:29:15Z
2020-01-03T13:31:47Z,42.805,6.029,13.2971,4.60008,2470.1,2020-1-03T15:32:18Z
2020-01-03T13:34:50Z,42.805,6.029,13.2990,4.60031,2470.087,2020-1-03T15:35:22Z
2020-01-03T13:37:53Z,42.805,6.029,13.2980,4.60007,2470.133,2020-1-03T15:38:25Z
2020-01-03T13:40:56Z,42.805,6.029,13.2984,4.60022,2470.124,2020-1-03T15:41:28Z
2020-01-03T13:44:00Z,42.805,6.029,13.2985,4.60004,2470.124,2020-1-03T15:44:31Z
2020-01-03T13:47:03Z,42.805,6.029,13.2973,4.59998,2470.124,2020-1-03T15:47:34Z
2020-01-03T13:50:06Z,42.805,6.029,13.2982,4.60016,2470.124,2020-1-03T15:50:38Z
2020-01-03T13:53:09Z,42.805,6.029,13.2974,4.60016,2470.11,2020-1-03T15:53:41Z
2020-01-03T13:56:12Z,42.805,6.029,13.2979,4.60021,2470.133,2020-1-03T15:56:44Z
2020-01-03T13:59:16Z,42.805,6.029,13.2975,4.60014,2470.133,2020-1-03T15:59:47Z
2020-01-03T14:02:19Z,42.805,6.029,13.2975,4.59992,2470.147,2020-1-03T16:02:50Z
2020-01-03T14:05:22Z,42.805,6.029,13.2978,4.60017,2470.124,2020-1-03T16:05:54Z
2020-01-03T14:08:25Z,42.805,6.029,13.2971,4.59995,2470.11,2020-1-03T16:08:57Z
2020-01-03T14:11:28Z,42.805,6.029,13.2971,4.59993,2470.087,2020-1-03T16:12:00Z
2020-01-03T14:14:32Z,42.805,6.029,13.2984,4.59988,2470.11,2020-1-03T16:15:03Z
2020-01-03T14:17:35Z,42.805,6.029,13.2973,4.60022,2470.11,2020-1-03T16:18:06Z
2020-01-03T14:20:38Z,42.805,6.029,13.2969,4.60013,2470.124,2020-1-03T16:21:09Z
2020-01-03T14:23:41Z,42.805,6.029,13.2979,4.60011,2470.124,2020-1-03T16:24:13Z
2020-01-03T14:26:44Z,42.805,6.029,13.2979,4.59998,2470.133,2020-1-03T16:27:16Z
2020-01-03T14:29:48Z,42.805,6.029,13.2979,4.60014,2470.087,2020-1-03T16:30:19Z
2020-01-03T14:32:51Z,42.805,6.029,13.2989,4.60034,2470.147,2020-1-03T16:33:23Z
2020-01-03T14:35:54Z,42.805,6.029,13.2974,4.60026,2470.11,2020-1-03T16:36:26Z
2020-01-03T14:38:57Z,42.805,6.029,13.2979,4.60031,2470.11,2020-1-03T16:39:29Z
2020-01-03T14:42:01Z,42.805,6.029,13.2974,4.59991,2470.124,2020-1-03T16:42:32Z
2020-01-03T14:45:04Z,42.805,6.029,13.2977,4.60007,2470.11,2020-1-03T16:45:35Z
2020-01-03T14:48:07Z,42.805,6.029,13.2975,4.60008,2470.087,2020-1-03T16:48:39Z
2020-01-03T14:51:10Z,42.805,6.029,13.2976,4.59996,2470.11,2020-1-03T16:51:42Z
2020-01-03T14:54:13Z,42.805,6.029,13.2974,4.60000,2470.124,2020-1-03T16:54:45Z
2020-01-03T14:57:17Z,42.805,6.029,13.2975,4.59993,2470.087,2020-1-03T16:57:48Z
2020-01-03T15:00:20Z,42.805,6.029,13.2970,4.60021,2470.11,2020-1-03T17:00:51Z
2020-01-03T15:03:23Z,42.805,6.029,13.2981,4.60015,2470.077,2020-1-03T17:03:55Z
2020-01-03T15:06:26Z,42.805,6.029,13.2976,4.60021,2470.124,2020-1-03T17:06:58Z
2020-01-03T15:09:29Z,42.805,6.029,13.2973,4.60008,2470.133,2020-1-03T17:10:01Z
2020-01-03T15:12:33Z,42.805,6.029,13.2971,4.60002,2470.11,2020-1-03T17:13:04Z
2020-01-03T15:15:36Z,42.805,6.029,13.2984,4.60001,2470.1,2020-1-03T17:16:07Z